Saint George's, Grenada

6:13 PM AST on October 21, 2017 (GMT -0400)
Saint George's

Weather History for 78958 - November, 2012

Change the Weather History Date:

Wednesday, November 14, 2012

  Actual Average Record
Temperature  
Mean Temperature 84 °F -  
Max Temperature 89 °F 84 °F - ()
Min Temperature 78 °F 75 °F - ()
Cooling Degree Days 18    
Growing Degree Days 34 (Base 50)    
Moisture  
Dew Point 77 °F    
Average Humidity 81    
Maximum Humidity 94    
Minimum Humidity 63    
Precipitation  
Precipitation 0.00 in - - ()
Sea Level Pressure  
Sea Level Pressure 29.85 in    
Wind  
Wind Speed 5 mph ()    
Max Wind Speed 13 mph    
Max Gust Speed -    
Visibility 8.1 miles    
Events      
T = Trace of Precipitation, MM = Missing Value Source: Averaged Metar Reports

Daily Weather History Graph

Daily Weather History Graph

Search for Another Location

Airport or City:

Trip Planner

Search our weather history database for the weather conditions in past years. The results will help you decide how hot, cold, wet, or windy it might be!

Date:

Astronomy

Nov. 14, 2012 Rise Set
Actual Time 6:04 AM AST 5:38 PM AST
Civil Twilight 5:41 AM AST 6:01 PM AST
Nautical Twilight 5:16 AM AST 6:26 PM AST
Astronomical Twilight 4:50 AM AST 6:52 PM AST
Moon 6:40 AM AST (11/14) 6:32 PM AST (11/14)
Length of Visible Light 12h 19m
Length of Day
11h 34m
New Moon, 1% of the Moon is Illuminated
Nov 14
New Moon
Nov 20
First Quarter
Nov 28
Full
Dec 6
Last Quarter
Dec 13
New

Hourly Weather History & Observations

Time (AST) Temp. Heat Index Dew Point Humidity Pressure Visibility Wind Dir Wind Speed Gust Speed Precip Events Conditions
12:00 AM 80.6 °F 87.1 °F 77.0 °F 89% 29.86 in 6.2 mi Variable 2.3 mph - N/A   Scattered Clouds
1:00 AM 78.8 °F - 77.0 °F 94% 29.83 in 6.2 mi Calm Calm - N/A   Partly Cloudy
2:00 AM 79 °F - 76 °F 88% 29.83 in 16 mi East 3.5 mph - -   Scattered Clouds
2:00 AM 78.8 °F - 77.0 °F 94% 29.83 in 6.2 mi East 3.5 mph - N/A   Partly Cloudy
3:00 AM 80.6 °F 86.2 °F 75.2 °F 84% 29.80 in 6.2 mi Variable 2.3 mph - N/A   Partly Cloudy
4:00 AM 78.8 °F - 75.2 °F 89% 29.80 in 6.2 mi Calm Calm - N/A   Partly Cloudy
5:00 AM 80 °F - 76 °F 84% 29.82 in 16 mi East 5.8 mph - -   Scattered Clouds
5:00 AM 80.6 °F 86.2 °F 75.2 °F 84% 29.80 in 6.2 mi East 5.8 mph - N/A   Partly Cloudy
6:00 AM 80.6 °F 87.1 °F 77.0 °F 89% 29.83 in 6.2 mi East 6.9 mph - N/A   Partly Cloudy
7:00 AM 82.4 °F 90.9 °F 77.0 °F 84% 29.86 in 6.2 mi East 5.8 mph - N/A   Partly Cloudy
8:00 AM 85 °F - 78 °F 73% 29.89 in 14 mi East 11.5 mph - -   Widespread Dust
8:00 AM 86.0 °F 96.9 °F 77.0 °F 74% 29.89 in 6.2 mi East 11.5 mph - N/A   Scattered Clouds
9:00 AM 87.8 °F 102.5 °F 78.8 °F 75% 29.89 in 6.2 mi East 11.5 mph - N/A   Partly Cloudy
10:00 AM 87.8 °F 102.5 °F 78.8 °F 75% 29.92 in 6.2 mi SE 12.7 mph - N/A   Partly Cloudy
11:00 AM 89 °F - 78 °F 63% 29.90 in 16 mi SE 11.5 mph - -   Partly Cloudy
11:00 AM 87.8 °F 102.5 °F 78.8 °F 75% 29.89 in 6.2 mi SE 11.5 mph - N/A   Scattered Clouds
12:00 PM 87.8 °F 102.5 °F 78.8 °F 75% 29.86 in 6.2 mi SE 11.5 mph - N/A   Scattered Clouds
1:00 PM 87.8 °F 102.5 °F 78.8 °F 75% 29.86 in 6.2 mi SE 12.7 mph - N/A   Mostly Cloudy
2:00 PM 87 °F - 78 °F 69% 29.83 in 16 mi SE 11.5 mph - -   Scattered Clouds
2:00 PM 87.8 °F 102.5 °F 78.8 °F 75% 29.83 in 6.2 mi SE 11.5 mph - N/A   Mostly Cloudy
3:00 PM 86.0 °F 96.9 °F 77.0 °F 74% 29.80 in 6.2 mi ESE 11.5 mph - N/A   Mostly Cloudy
4:00 PM 86.0 °F 96.9 °F 77.0 °F 74% 29.80 in 6.2 mi ESE 10.4 mph - N/A   Mostly Cloudy
5:00 PM 84.2 °F 94.1 °F 77.0 °F 79% 29.80 in 6.2 mi East 6.9 mph - N/A   Mostly Cloudy
6:00 PM 82.4 °F 90.9 °F 77.0 °F 84% 29.80 in 6.2 mi Variable 2.3 mph - N/A   Mostly Cloudy
7:00 PM 82.4 °F 90.9 °F 77.0 °F 84% 29.83 in 6.2 mi East 5.8 mph - N/A   Mostly Cloudy
8:00 PM 80.6 °F 87.1 °F 77.0 °F 89% 29.86 in 6.2 mi East 6.9 mph - N/A   Scattered Clouds
9:00 PM 80.6 °F 87.1 °F 77.0 °F 89% 29.86 in 6.2 mi ESE 8.1 mph - N/A   Scattered Clouds
10:00 PM 80.6 °F 87.1 °F 77.0 °F 89% 29.89 in 6.2 mi East 5.8 mph - N/A   Scattered Clouds
11:00 PM 80 °F - 76 °F 84% 29.87 in 17 mi Calm Calm - -   Scattered Clouds
11:00 PM 80.6 °F 87.1 °F 77.0 °F 89% 29.86 in 6.2 mi Calm Calm - N/A   Scattered Clouds